When you browse on this site, cookies collect data to enhance your experience and personalize the content and advertising you see.
Visit our Privacy Policy to learn more. By continuing to use the site, you agree to this use of cookies and data.
  • In Hungary
  • List of Countries
  • For 7 days
  • Water Temperature
  • Weather Map
  • News
  • Weather Widgets
  • user-avatar
    Login

    Hourly Weather Siteki

    Today, 22 November, Friday

    Time Temperature Precipitation Wind Pressure Humidity
    00:00 +19°C° 0 mm 0 mps 715 mmHg 97%
    01:00 +19°C° 0 mm 0 mps 714 mmHg 97%
    02:00 +19°C° 0 mm 0 mps 715 mmHg 95%
    03:00 +19°C° 0.1 mm 0 mps 715 mmHg 95%
    04:00 +19°C° 0.1 mm 0 mps 715 mmHg 95%
    05:00 +20°C° 0.1 mm 0 mps 715 mmHg 95%
    06:00 +21°C° 0.2 mm 0 mps 715 mmHg 92%
    07:00 +21°C° 0.2 mm 0 mps 716 mmHg 88%
    08:00 +23°C° 0 mm 0 mps 716 mmHg 85%
    09:00 +26°C° 0.1 mm 1 mps 716 mmHg 79%
    10:00 +27°C° 0.1 mm 1 mps 716 mmHg 74%
    11:00 +28°C° 0.1 mm 1 mps 716 mmHg 69%
    12:00 +29°C° 0 mm 2 mps 716 mmHg 66%
    13:00 +29°C° 0 mm 2 mps 715 mmHg 63%
    14:00 +30°C° 0 mm 2 mps 715 mmHg 61%
    15:00 +29°C° 0 mm 2 mps 715 mmHg 65%
    16:00 +29°C° 0 mm 3 mps 714 mmHg 68%
    17:00 +28°C° 0 mm 3 mps 714 mmHg 71%
    18:00 +26°C° 0.1 mm 3 mps 715 mmHg 77%
    19:00 +25°C° 0.1 mm 2 mps 715 mmHg 83%
    20:00 +24°C° 0.1 mm 2 mps 715 mmHg 89%
    21:00 +23°C° 0.1 mm 2 mps 716 mmHg 91%
    22:00 +23°C° 0.1 mm 1 mps 716 mmHg 92%
    23:00 +23°C° 0.1 mm 1 mps 716 mmHg 94%

    Tomorrow, 23 November, Saturday

    Time Temperature Precipitation Wind Pressure Humidity
    00:00 +23°C° 0.1 mm 1 mps 716 mmHg 94%
    01:00 +23°C° 0.1 mm 1 mps 716 mmHg 94%
    02:00 +23°C° 0.1 mm 1 mps 716 mmHg 95%
    03:00 +23°C° 0.1 mm 1 mps 716 mmHg 95%
    04:00 +23°C° 0.1 mm 1 mps 716 mmHg 95%
    05:00 +23°C° 0.1 mm 1 mps 715 mmHg 95%
    06:00 +24°C° 0 mm 2 mps 716 mmHg 89%
    07:00 +25°C° 0 mm 3 mps 716 mmHg 84%
    08:00 +26°C° 0 mm 3 mps 716 mmHg 78%
    09:00 +28°C° 0 mm 4 mps 716 mmHg 70%
    10:00 +30°C° 0 mm 4 mps 716 mmHg 62%
    11:00 +33°C° 0 mm 4 mps 715 mmHg 54%
    12:00 +34°C° 0 mm 5 mps 715 mmHg 51%
    13:00 +35°C° 0 mm 5 mps 714 mmHg 48%
    14:00 +36°C° 0 mm 6 mps 714 mmHg 45%
    15:00 +35°C° 0 mm 5 mps 713 mmHg 46%
    16:00 +35°C° 0 mm 5 mps 713 mmHg 47%
    17:00 +34°C° 0 mm 5 mps 712 mmHg 47%
    18:00 +30°C° 1.3 mm 4 mps 713 mmHg 60%
    19:00 +27°C° 1.3 mm 3 mps 714 mmHg 72%
    20:00 +23°C° 1.3 mm 1 mps 714 mmHg 85%
    21:00 +23°C° 0.2 mm 1 mps 715 mmHg 86%
    22:00 +23°C° 0.2 mm 1 mps 716 mmHg 88%
    23:00 +23°C° 0.2 mm 1 mps 716 mmHg 90%

    Day after tomorrow, 24 November, Sunday

    Time Temperature Precipitation Wind Pressure Humidity
    00:00 +22°C° 0 mm 1 mps 716 mmHg 90%
    01:00 +22°C° 0 mm 1 mps 715 mmHg 91%
    02:00 +22°C° 0 mm 1 mps 715 mmHg 92%
    03:00 +19°C° 0 mm 0 mps 715 mmHg 92%
    04:00 +19°C° 0 mm 0 mps 715 mmHg 92%
    05:00 +19°C° 0 mm 0 mps 715 mmHg 93%
    06:00 +21°C° 0 mm 0 mps 716 mmHg 84%
    07:00 +25°C° 0 mm 1 mps 717 mmHg 75%
    08:00 +27°C° 0 mm 1 mps 717 mmHg 66%
    09:00 +29°C° 0 mm 1 mps 717 mmHg 59%
    10:00 +32°C° 0 mm 1 mps 717 mmHg 51%
    11:00 +34°C° 0 mm 1 mps 717 mmHg 44%
    12:00 +35°C° 0 mm 2 mps 716 mmHg 43%
    13:00 +35°C° 0 mm 3 mps 716 mmHg 42%
    14:00 +35°C° 0 mm 3 mps 715 mmHg 41%
    15:00 +34°C° 0.1 mm 4 mps 715 mmHg 47%
    16:00 +33°C° 0.1 mm 4 mps 715 mmHg 54%
    17:00 +32°C° 0.1 mm 4 mps 715 mmHg 60%
    18:00 +29°C° 0.9 mm 4 mps 715 mmHg 69%
    19:00 +27°C° 0.9 mm 3 mps 715 mmHg 79%
    20:00 +25°C° 0.9 mm 2 mps 715 mmHg 88%
    21:00 +24°C° 0 mm 2 mps 715 mmHg 89%
    22:00 +24°C° 0 mm 1 mps 716 mmHg 90%
    23:00 +23°C° 0 mm 1 mps 716 mmHg 91%

    25 November, Monday

    Time Temperature Precipitation Wind Pressure Humidity
    00:00 +23°C° 0 mm 1 mps 716 mmHg 93%
    01:00 +23°C° 0 mm 1 mps 716 mmHg 95%
    02:00 +21°C° 0 mm 2 mps 716 mmHg 96%
    03:00 +21°C° 0 mm 2 mps 716 mmHg 96%
    04:00 +23°C° 0 mm 2 mps 716 mmHg 95%
    05:00 +23°C° 0 mm 2 mps 717 mmHg 94%
    06:00 +23°C° 0.1 mm 2 mps 717 mmHg 92%
    07:00 +23°C° 0.1 mm 2 mps 717 mmHg 89%
    08:00 +23°C° 0.1 mm 2 mps 718 mmHg 86%
    09:00 +25°C° 0 mm 2 mps 718 mmHg 79%
    10:00 +26°C° 0 mm 2 mps 717 mmHg 71%
    11:00 +28°C° 0 mm 2 mps 717 mmHg 63%
    12:00 +29°C° 0 mm 2 mps 717 mmHg 61%
    13:00 +29°C° 0 mm 2 mps 716 mmHg 59%
    14:00 +30°C° 0 mm 2 mps 716 mmHg 57%
    15:00 +29°C° 0 mm 2 mps 715 mmHg 59%
    16:00 +29°C° 0 mm 2 mps 715 mmHg 61%
    17:00 +28°C° 0 mm 3 mps 715 mmHg 63%
    18:00 +27°C° 0 mm 2 mps 715 mmHg 71%
    19:00 +25°C° 0 mm 2 mps 716 mmHg 78%
    20:00 +23°C° 0 mm 2 mps 716 mmHg 86%
    21:00 +23°C° 0 mm 2 mps 716 mmHg 87%
    22:00 +21°C° 0 mm 2 mps 716 mmHg 88%
    23:00 +22°C° 0 mm 1 mps 716 mmHg 89%

    26 November, Tuesday

    Time Temperature Precipitation Wind Pressure Humidity
    00:00 +22°C° 0.2 mm 1 mps 716 mmHg 90%
    01:00 +22°C° 0.2 mm 1 mps 716 mmHg 92%
    02:00 +20°C° 0.2 mm 2 mps 716 mmHg 94%
    03:00 +20°C° 0.1 mm 2 mps 716 mmHg 94%
    04:00 +20°C° 0.1 mm 2 mps 717 mmHg 94%
    05:00 +21°C° 0.1 mm 1 mps 717 mmHg 94%
    06:00 +20°C° 0 mm 2 mps 717 mmHg 91%
    07:00 +21°C° 0 mm 2 mps 718 mmHg 88%
    08:00 +21°C° 0 mm 2 mps 718 mmHg 86%
    09:00 +24°C° 0 mm 2 mps 718 mmHg 79%
    10:00 +25°C° 0 mm 2 mps 718 mmHg 72%
    11:00 +27°C° 0 mm 2 mps 718 mmHg 66%
    12:00 +27°C° 0 mm 2 mps 718 mmHg 66%
    13:00 +27°C° 0 mm 2 mps 718 mmHg 65%
    14:00 +27°C° 0 mm 2 mps 717 mmHg 65%
    15:00 +26°C° 0 mm 3 mps 717 mmHg 68%
    16:00 +25°C° 0 mm 3 mps 717 mmHg 70%
    17:00 +25°C° 0 mm 3 mps 717 mmHg 73%
    18:00 +24°C° 0 mm 3 mps 717 mmHg 75%
    19:00 +22°C° 0 mm 3 mps 718 mmHg 78%
    20:00 +21°C° 0 mm 2 mps 718 mmHg 80%
    21:00 +20°C° 0 mm 2 mps 718 mmHg 82%
    22:00 +20°C° 0 mm 2 mps 719 mmHg 84%
    23:00 +20°C° 0 mm 2 mps 719 mmHg 87%

    27 November, Wednesday

    Time Temperature Precipitation Wind Pressure Humidity
    00:00 +20°C° 0 mm 2 mps 719 mmHg 87%
    01:00 +19°C° 0 mm 2 mps 718 mmHg 87%
    02:00 +20°C° 0 mm 1 mps 718 mmHg 87%
    03:00 +20°C° 0 mm 1 mps 718 mmHg 86%
    04:00 +20°C° 0 mm 1 mps 719 mmHg 85%
    05:00 +18°C° 0 mm 0 mps 719 mmHg 84%
    06:00 +22°C° 0 mm 1 mps 720 mmHg 76%
    07:00 +23°C° 0 mm 1 mps 720 mmHg 68%
    08:00 +25°C° 0 mm 1 mps 721 mmHg 60%
    09:00 +27°C° 0 mm 1 mps 721 mmHg 55%
    10:00 +28°C° 0 mm 1 mps 721 mmHg 51%
    11:00 +30°C° 0 mm 2 mps 721 mmHg 46%
    12:00 +30°C° 0 mm 2 mps 720 mmHg 45%
    13:00 +31°C° 0 mm 2 mps 719 mmHg 45%
    14:00 +31°C° 0 mm 2 mps 718 mmHg 44%
    15:00 +30°C° 0 mm 3 mps 718 mmHg 47%
    16:00 +30°C° 0 mm 3 mps 717 mmHg 50%
    17:00 +29°C° 0 mm 4 mps 717 mmHg 53%
    18:00 +26°C° 0 mm 3 mps 717 mmHg 62%
    19:00 +24°C° 0 mm 3 mps 717 mmHg 72%
    20:00 +20°C° 0 mm 2 mps 717 mmHg 82%
    21:00 +20°C° 0 mm 2 mps 717 mmHg 85%
    22:00 +21°C° 0 mm 1 mps 717 mmHg 88%
    23:00 +18°C° 0 mm 0 mps 717 mmHg 92%
    Show more